EW9290 Weather Reports


Display with metric or nautical units.
time (UTC)temp
F
wind
direction
speed
MPH
gust
MPH
rain 1hr
in
rain 24hr
in
rain mn
in
humidity
%
barometer
mb
20260505195319 58 297 2.0 3.0 0.00 0.02 0.02 94 1005.3
20260505194816 58 322 3.0 3.0 0.00 0.02 0.02 93 1005.2
20260505194314 58 309 2.0 2.0 0.00 0.02 0.02 93 1005.3
20260505193808 58 301 3.0 3.0 0.00 0.02 0.02 92 1005.3
20260505193307 59 292 3.0 5.0 0.07 0.02 0.02 90 1005.3
20260505192805 60 293 3.0 5.0 0.00 0.01 0.01 86 1005.3
20260505192305 61 274 3.0 3.0 0.00 0.01 0.01 82 1005.3
20260505191800 62 266 1.0 1.0 0.00 0.01 0.01 80 1005.1
20260505191258 62 300 2.0 2.0 0.00 0.01 0.01 79 1005.2
20260505190754 62 263 1.0 2.0 0.00 0.01 0.01 79 1005.2
20260505190249 62 285 3.0 3.0 0.00 0.01 0.01 78 1005.1
20260505185746 63 256 1.0 2.0 0.00 0.01 0.01 77 1005.1
20260505185243 63 263 1.0 2.0 0.00 0.01 0.01 76 1005.2
20260505184738 63 266 2.0 2.0 0.00 0.01 0.01 75 1005.3
20260505184236 63 298 4.0 5.0 0.00 0.01 0.01 75 1005.3
20260505183733 63 207 6.0 7.0 0.00 0.01 0.01 75 1005.5
20260505183230 63 228 4.0 6.0 0.00 0.01 0.01 75 1005.4
20260505182726 63 252 2.0 2.0 0.00 0.01 0.01 75 1005.3
20260505182223 63 245 2.0 2.0 0.00 0.01 0.01 74 1005.5
20260505181720 63 245 1.0 1.0 0.00 0.01 0.01 74 1005.4
20260505181217 63 260 2.0 2.0 0.00 0.01 0.01 75 1005.3
20260505180714 63 270 4.0 6.0 0.00 0.01 0.01 73 1005.4
20260505180210 63 257 3.0 5.0 0.00 0.01 0.01 75 1005.3
20260505175706 63 300 3.0 3.0 0.00 0.01 0.01 75 1005.3
20260505175203 63 288 2.0 2.0 0.00 0.01 0.01 75 1005.3
20260505174700 63 281 4.0 5.0 0.00 0.01 0.01 74 1005.2
20260505174156 63 308 3.0 3.0 0.00 0.01 0.01 74 1005.1
20260505173653 64 296 7.0 8.0 0.00 0.01 0.01 73 1005.2
20260505173150 64 274 5.0 5.0 0.00 0.01 0.01 71 1005.2
20260505172647 64 304 6.0 7.0 0.00 0.01 0.01 71 1005.4
20260505172144 64 257 7.0 10.0 0.00 0.01 0.01 70 1005.2
20260505171643 64 278 4.0 5.0 0.00 0.01 0.01 70 1005.1
20260505171141 65 229 3.0 5.0 0.00 0.01 0.01 70 1005.3
20260505170638 65 243 3.0 5.0 0.00 0.01 0.01 70 1005.2
20260505170135 65 260 1.0 1.0 0.00 0.01 0.01 70 1005.2
20260505165635 65 294 7.0 8.0 0.00 0.01 0.01 68 1005.2
20260505165131 65 218 3.0 3.0 0.00 0.01 0.01 69 1005.0
20260505164627 65 252 3.0 3.0 0.00 0.01 0.01 69 1005.3
20260505164125 65 278 3.0 3.0 0.00 0.01 0.01 69 1005.1
20260505163623 65 281 4.0 5.0 0.00 0.01 0.01 68 1005.0
20260505163120 65 275 3.0 5.0 0.00 0.01 0.01 68 1005.2
20260505162617 65 290 5.0 6.0 0.00 0.01 0.01 68 1005.0
20260505162115 65 282 7.0 8.0 0.00 0.01 0.01 67 1005.3
20260505161612 66 244 7.0 9.0 0.00 0.01 0.01 66 1005.2
20260505161109 66 298 5.0 6.0 0.00 0.01 0.01 66 1004.9
20260505160607 66 217 9.0 11.0 0.00 0.01 0.01 65 1005.2
20260505160104 67 221 8.0 14.0 0.00 0.01 0.01 65 1005.1
20260505153043 68 296 5.0 8.0 0.00 0.01 0.01 63 1004.5
20260505152540 68 213 2.0 2.0 0.00 0.01 0.01 64 1004.1
20260505152036 67 272 3.0 3.0 0.00 0.01 0.01 64 1004.1
20260505151531 67 220 3.0 5.0 0.00 0.01 0.01 65 1004.0
20260505151029 67 217 5.0 7.0 0.00 0.01 0.01 65 1003.9
20260505150525 66 250 4.0 7.0 0.00 0.01 0.01 65 1004.2
20260505140450 64 225 9.0 10.0 0.00 0.01 0.01 72 1003.9
20260505124903 60 218 7.0 9.0 0.00 0.01 0.01 79 1004.1
20260505124401 60 216 5.0 7.0 0.00 0.01 0.01 79 1004.1
20260505123856 60 254 3.0 5.0 0.00 0.01 0.01 80 1004.2
20260505123353 60 229 2.0 2.0 0.00 0.01 0.01 79 1004.1
20260505122849 60 219 5.0 7.0 0.00 0.01 0.01 79 1003.9
20260505122347 60 209 6.0 7.0 0.00 0.01 0.01 79 1003.9
20260505121843 60 219 2.0 2.0 0.00 0.01 0.01 79 1003.9
20260505121340 60 211 6.0 7.0 0.00 0.01 0.01 78 1003.8
20260505120836 60 235 5.0 7.0 0.00 0.01 0.01 77 1003.6
20260505120332 60 246 7.0 8.0 0.00 0.01 0.01 77 1003.5
20260505115831 61 234 13.0 17.0 0.00 0.01 0.01 76 1003.4
20260505115329 61 196 7.0 11.0 0.00 0.01 0.01 75 1003.2
20260505114827 60 193 7.0 9.0 0.00 0.01 0.01 75 1002.7
20260505114323 60 223 6.0 9.0 0.00 0.01 0.01 78 1002.5
20260505113819 60 211 3.0 3.0 0.00 0.01 0.01 77 1002.5
20260505113316 60 205 7.0 8.0 0.00 0.01 0.01 76 1002.4
20260505112811 60 222 4.0 7.0 0.00 0.01 0.01 77 1002.4
20260505112309 59 229 6.0 7.0 0.00 0.01 0.01 78 1002.5
20260505111805 58 233 5.0 7.0 0.00 0.01 0.01 81 1002.5
20260505111300 58 228 3.0 3.0 0.05 0.01 0.01 85 1002.7
20260505110756 59 222 8.0 10.0 0.05 0.01 0.01 82 1002.7
20260505110254 60 243 7.0 9.0 0.00 0.00 0.00 79 1002.7
20260505101728 63 178 7.0 10.0 0.00 0.00 0.00 69 1002.4
20260505101224 63 199 5.0 6.0 0.00 0.00 0.00 69 1002.4
20260505100721 63 224 3.0 3.0 0.00 0.00 0.00 69 1002.3
20260505100218 63 221 7.0 9.0 0.00 0.00 0.00 69 1002.4
20260505095713 63 253 5.0 6.0 0.00 0.00 0.00 69 1002.0
20260505095211 63 248 5.0 7.0 0.00 0.00 0.00 69 1002.3
20260505094706 64 221 6.0 13.0 0.00 0.00 0.00 68 1002.1
20260505094203 64 274 5.0 7.0 0.00 0.00 0.00 68 1001.9
20260505093659 64 251 6.0 8.0 0.00 0.00 0.00 67 1001.7
20260505093157 64 217 3.0 5.0 0.00 0.00 0.00 67 1001.6
20260505092654 65 233 7.0 8.0 0.00 0.00 0.00 66 1001.8
20260505092152 65 254 6.0 8.0 0.00 0.00 0.00 66 1001.7
20260505091649 65 187 7.0 9.0 0.00 0.00 0.00 65 1001.4
20260505091147 65 212 11.0 15.0 0.00 0.00 0.00 65 1001.3
20260505090644 65 220 5.0 6.0 0.00 0.00 0.00 65 1001.5
20260505090143 65 219 4.0 5.0 0.00 0.00 0.00 64 1001.3
20260505085640 66 221 11.0 15.0 0.00 0.00 0.00 64 1001.3
20260505085138 66 218 6.0 8.0 0.00 0.00 0.00 63 1001.4
20260505084635 66 255 7.0 8.0 0.00 0.00 0.00 63 1001.4
20260505084133 66 241 5.0 6.0 0.00 0.00 0.00 63 1001.4
20260505083631 66 221 7.0 10.0 0.00 0.00 0.00 62 1001.3
20260505083127 66 222 7.0 7.0 0.00 0.00 0.00 62 1001.5
20260505082623 66 208 12.0 14.0 0.00 0.00 0.00 62 1001.5
20260505082120 67 260 12.0 15.0 0.00 0.00 0.00 61 1001.2
20260505081616 66 247 14.0 18.0 0.00 0.00 0.00 63 1001.4
20260505081114 66 232 11.0 13.0 0.00 0.00 0.00 63 1001.4
20260505080610 65 221 6.0 7.0 0.00 0.00 0.00 67 1001.4
20260505080106 65 271 9.0 17.0 0.00 0.00 0.00 66 1001.2
20260505075602 64 217 5.0 8.0 0.00 0.00 0.00 68 1001.2
20260505075059 64 272 6.0 9.0 0.00 0.00 0.00 69 1000.9
20260505074556 65 217 6.0 8.0 0.00 0.00 0.00 68 1001.1
20260505074053 64 280 6.0 10.0 0.00 0.00 0.00 69 1001.0
20260505073551 64 256 6.0 7.0 0.00 0.00 0.00 69 1001.2
20260505073049 64 227 3.0 3.0 0.00 0.00 0.00 71 1001.0
20260505072544 64 218 5.0 7.0 0.00 0.00 0.00 71 1001.1
20260505072041 65 188 3.0 5.0 0.00 0.00 0.00 69 1000.9
20260505071536 65 250 5.0 6.0 0.00 0.00 0.00 68 1000.6
20260505071035 65 219 5.0 7.0 0.00 0.00 0.00 68 1000.9
20260505070531 66 189 6.0 9.0 0.00 0.00 0.00 67 1000.7
20260505070027 66 200 8.0 13.0 0.00 0.00 0.00 66 1000.8
20260505065523 66 236 6.0 7.0 0.00 0.00 0.00 66 1000.8
20260505065020 66 196 8.0 10.0 0.00 0.00 0.00 65 1000.8
20260505064517 66 223 5.0 6.0 0.00 0.00 0.00 65 1001.0
20260505064016 66 223 6.0 7.0 0.00 0.00 0.00 65 1000.9
20260505063513 66 229 10.0 15.0 0.00 0.00 0.00 65 1000.9
20260505063008 66 218 3.0 5.0 0.00 0.00 0.00 66 1000.8
20260505062505 66 212 5.0 7.0 0.00 0.00 0.00 66 1001.1
20260505062002 65 205 8.0 9.0 0.00 0.00 0.00 66 1001.0
20260505061500 65 192 7.0 10.0 0.00 0.00 0.00 67 1001.0
20260505060957 65 203 5.0 6.0 0.00 0.00 0.00 67 1001.1
20260505060454 65 187 7.0 7.0 0.00 0.00 0.00 67 1001.2
20260505055951 65 212 6.0 9.0 0.00 0.00 0.00 67 1001.1
20260505055446 65 192 5.0 8.0 0.00 0.00 0.00 68 1001.1
20260505054944 65 226 7.0 9.0 0.00 0.00 0.00 68 1001.2
20260505054441 65 197 3.0 3.0 0.00 0.00 0.00 69 1001.3
20260505053939 65 203 6.0 9.0 0.00 0.00 0.00 69 1001.5
20260505053436 65 199 5.0 7.0 0.00 0.00 0.00 69 1001.5
20260505052932 64 187 8.0 11.0 0.00 0.00 0.00 69 1001.5
20260505052429 65 219 4.0 5.0 0.00 0.00 0.00 69 1001.7
20260505051927 64 191 9.0 13.0 0.00 0.00 0.00 69 1001.4
20260505051423 64 201 7.0 9.0 0.00 0.00 0.00 69 1001.9
20260505050922 64 204 2.0 2.0 0.00 0.00 0.00 69 1001.7
20260505050420 64 208 3.0 3.0 0.00 0.00 0.00 69 1001.6
20260505041347 65 198 8.0 9.0 0.00 0.00 0.00 68 1002.1
20260505040844 65 202 5.0 6.0 0.00 0.00 0.00 68 1002.2
20260505040342 65 205 9.0 14.0 0.00 0.00 0.00 68 1002.3
20260505035838 65 214 9.0 10.0 0.00 0.00 0.00 68 1002.0
20260505035334 65 219 5.0 5.0 0.00 0.00 0.00 67 1001.9
20260505034832 65 184 7.0 8.0 0.00 0.00 0.00 68 1001.8
20260505034328 65 195 4.0 5.0 0.00 0.00 0.00 68 1002.0
20260505033825 65 163 7.0 9.0 0.00 0.00 0.00 68 1001.8
20260505033322 65 190 4.0 5.0 0.00 0.00 0.00 68 1002.1
20260505032821 65 206 5.0 7.0 0.00 0.00 0.00 68 1002.2
20260505032316 65 214 4.0 6.0 0.00 0.00 0.00 68 1002.4
20260505031814 65 178 9.0 11.0 0.00 0.00 0.00 68 1002.3
20260505031310 65 193 4.0 5.0 0.00 0.00 0.00 68 1002.3
20260505030808 65 196 5.0 6.0 0.00 0.00 0.00 67 1002.5
20260505030303 65 168 5.0 7.0 0.00 0.00 0.00 67 1002.3
20260505025759 65 202 6.0 9.0 0.00 0.00 0.00 68 1002.3
20260505025257 65 202 5.0 7.0 0.00 0.00 0.00 67 1002.3
20260505024755 65 212 9.0 13.0 0.00 0.00 0.00 67 1002.4
20260505024252 65 208 6.0 7.0 0.00 0.00 0.00 66 1002.1
20260505023749 65 188 7.0 10.0 0.00 0.00 0.00 66 1002.1
20260505023246 65 193 7.0 8.0 0.00 0.00 0.00 66 1002.2
20260505022744 65 206 7.0 9.0 0.00 0.00 0.00 66 1002.2
20260505022241 65 177 6.0 9.0 0.00 0.00 0.00 66 1001.9
20260505021737 65 226 4.0 5.0 0.00 0.00 0.00 66 1002.3
20260505021234 65 221 5.0 7.0 0.00 0.00 0.00 65 1002.2
20260505020730 65 186 3.0 3.0 0.00 0.00 0.00 65 1002.0
20260505020225 65 179 4.0 5.0 0.00 0.00 0.00 64 1002.2
20260505015723 65 185 6.0 7.0 0.00 0.00 0.00 64 1002.1
20260505015220 66 245 6.0 8.0 0.00 0.00 0.00 63 1002.4
20260505014717 66 183 4.0 5.0 0.00 0.00 0.00 62 1002.4
20260505014214 66 212 5.0 5.0 0.00 0.00 0.00 62 1002.3
20260505013711 66 232 5.0 7.0 0.00 0.00 0.00 61 1002.4
20260505013208 67 237 9.0 15.0 0.00 0.00 0.00 61 1002.1
20260505012706 67 192 4.0 6.0 0.00 0.00 0.00 60 1002.3
20260505012203 67 247 6.0 8.0 0.00 0.00 0.00 60 1002.1
20260505011658 67 211 5.0 6.0 0.00 0.00 0.00 60 1002.2
20260505011156 67 232 5.0 6.0 0.00 0.00 0.00 59 1002.2
20260505010651 68 227 5.0 6.0 0.00 0.00 0.00 58 1002.0
20260505010148 68 207 5.0 6.0 0.00 0.00 0.00 58 1002.0
20260505005644 68 212 6.0 7.0 0.00 0.00 0.00 57 1002.2
20260505005142 68 172 4.0 5.0 0.00 0.00 0.00 56 1001.9
20260505004638 69 235 3.0 7.0 0.00 0.00 0.00 55 1001.7
20260505004135 69 206 6.0 8.0 0.00 0.00 0.00 55 1001.7
20260505003632 69 188 5.0 6.0 0.00 0.00 0.00 56 1001.8
20260505003130 69 206 6.0 8.0 0.00 0.00 0.00 56 1001.7
20260505002626 69 235 5.0 7.0 0.00 0.00 0.00 55 1001.5
20260505002124 69 196 2.0 2.0 0.00 0.00 0.00 56 1001.5
20260505001621 69 227 1.0 2.0 0.00 0.00 0.00 56 1001.6
20260505001118 69 229 2.0 2.0 0.00 0.00 0.00 57 1001.3
20260505000615 69 230 4.0 6.0 0.00 0.00 0.00 56 1001.4
20260505000113 69 201 4.0 5.0 0.00 0.00 0.00 56 1001.1
20260504235609 69 230 3.0 3.0 0.00 0.00 0.00 55 1001.2
20260504235106 69 216 6.0 6.0 0.00 0.00 0.00 56 1001.2
20260504234603 70 232 5.0 7.0 0.00 0.00 0.00 56 1000.9
20260504234100 70 229 5.0 7.0 0.00 0.00 0.00 55 1000.8
20260504233555 70 194 6.0 10.0 0.00 0.00 0.00 55 1000.8
20260504233052 71 215 13.0 16.0 0.00 0.00 0.00 54 1000.8
20260504232549 71 228 10.0 11.0 0.00 0.00 0.00 54 1000.8
20260504232047 71 210 5.0 6.0 0.00 0.00 0.00 55 1000.8
20260504231543 71 223 8.0 10.0 0.00 0.00 0.00 54 1001.0
20260504231039 71 246 5.0 7.0 0.00 0.00 0.00 54 1001.0
20260504230536 71 238 8.0 9.0 0.00 0.00 0.00 54 1000.9
20260504230035 71 233 9.0 13.0 0.00 0.00 0.00 55 1001.0
20260504225532 71 221 5.0 6.0 0.00 0.00 0.00 54 1001.1
20260504225029 72 243 8.0 10.0 0.00 0.00 0.00 54 1001.0
20260504224525 72 244 5.0 7.0 0.00 0.00 0.00 54 1001.0
20260504224023 71 261 6.0 8.0 0.00 0.00 0.00 55 1001.1
20260504223519 71 215 6.0 10.0 0.00 0.00 0.00 56 1001.5
20260504223015 71 252 6.0 8.0 0.00 0.00 0.00 55 1001.3
20260504222512 71 228 9.0 17.0 0.00 0.00 0.00 55 1001.2
20260504222010 71 226 7.0 9.0 0.00 0.00 0.00 55 1001.2
20260504221507 71 206 13.0 14.0 0.00 0.00 0.00 56 1001.1
20260504221003 71 232 5.0 8.0 0.00 0.00 0.00 56 1001.4
20260504220500 71 194 9.0 11.0 0.00 0.00 0.00 56 1001.4
20260504215957 72 213 7.0 8.0 0.00 0.00 0.00 55 1001.5
20260504215453 70 231 6.0 10.0 0.00 0.00 0.00 60 1001.3
20260504214950 69 195 5.0 6.0 0.00 0.00 0.00 62 1001.3
20260504214446 68 234 10.0 14.0 0.00 0.00 0.00 63 1001.5
20260504213943 70 226 12.0 15.0 0.00 0.00 0.00 57 1001.6
20260504213439 70 245 10.0 13.0 0.00 0.00 0.00 56 1001.5
20260504212937 71 222 7.0 10.0 0.00 0.00 0.00 56 1001.5
20260504212432 71 212 10.0 11.0 0.00 0.00 0.00 56 1001.7
20260504211931 72 224 9.0 10.0 0.00 0.00 0.00 54 1001.6
20260504211426 72 239 13.0 15.0 0.00 0.00 0.00 53 1001.5
20260504210924 72 179 9.0 11.0 0.00 0.00 0.00 53 1001.9
20260504210421 72 228 11.0 16.0 0.00 0.00 0.00 53 1001.9
20260504205918 71 207 5.0 7.0 0.00 0.00 0.00 55 1001.7
20260504205416 72 202 9.0 13.0 0.00 0.00 0.00 53 1001.8
20260504204914 72 169 7.0 9.0 0.00 0.00 0.00 52 1002.0
20260504204412 72 215 3.0 3.0 0.00 0.00 0.00 53 1001.9
20260504203911 71 255 5.0 6.0 0.00 0.00 0.00 54 1001.9
20260504203408 71 220 9.0 10.0 0.00 0.00 0.00 54 1002.3
20260504202903 71 254 9.0 11.0 0.00 0.00 0.00 53 1001.9
20260504202400 71 266 7.0 10.0 0.00 0.00 0.00 54 1002.3
20260504201857 71 246 9.0 11.0 0.00 0.00 0.00 53 1002.2
20260504201354 71 219 10.0 14.0 0.00 0.00 0.00 52 1002.2
20260504200852 71 259 9.0 10.0 0.00 0.00 0.00 52 1002.3
20260504200348 71 230 7.0 8.0 0.00 0.00 0.00 53 1002.3
20260504195845 71 218 9.0 13.0 0.00 0.00 0.00 52 1002.5